STARLINK-36389

Last updated on Sun Mar 15 2026 00:02:06 GMT+0000 (Coordinated Universal Time)

1 67806U 26032K 26073.50185928 .00177867 00000+0 11655-2 0 9991 2 67806 97.2838 260.2666 0001495 64.1241 296.0179 15.75253332 5545
UTC large
Height (km)
Speed (km/s)
/
Latitude / Longitude
Inclination (degrees)
Orbital Period (minutes)
Azimuth
Elevation
Range (km)
Doppler Factor

Next 0 passes for location: London (51.5072 / 0.1276)

Sorry there are no passes over London.